STARLINK-33841 (63771 NORAD) Tracking and Keplerian Element Data

This shows tracking and keplerian element data for the satellite.

Feedback or suggestion? Click here.




ElementValue
Catalog63771
NameSTARLINK-33841
Epoch Orbit3669
Epoch Day353.81707847
Epoch Year2025
RAAN136.173
Inclination43.0011
Eccentricity0.0001946
Argument of Perigee273.1823
Mean Anonmoly86.8806
Mean Motion15.27593929
Decay Rate0.00015302
L11 63771U 25089W 25353.81707847 .00015302 00000+0 56418-3 0 9995
L22 63771 43.0011 136.1730 0001946 273.1823 86.8806 15.27593929 36694



Live tracking and technical data element details for STARLINK-33841 (NORAD 63771). STARLINK-33841 can be tracked NOW for your location showing map with azimuth and elevation plus other details from your city location.







IsCatalogInMostPopularTable: catalog: 63771, numindb: 6
Update: records affected: 1



GetName: 63771 STARLINK-33841

Hit Count: updated at: Tue, 21 Apr 2026 20:50:11 GMT